[[{"header":{"parameterUnit":"m.s-1","parameterCategory":1,"la1":30.2991,"la2":30.254,"lo1":-89.0895,"lo2":-89.0444,"dy":0.0017,"dx":0.0017,"nx":28,"ny":28,"refTime":"2026-02-14T09:00:00:Z","depth":0,"parameterNumber":2,"parameterNumberName":"U-component_of_WINDS"},"data":[0,0,0,0,0,0,0,0,0,0,0,0,0,0,0,0,0,0,0,0,0,0,0,0,0,0,0,0,0,0,0,0,0,0,0,0,0,0,0,0,0,0,0,0,0,0,0,0,0,0,0,0,0,0,0,0,0,0,-4.414,-4.414,0,-4.4229,-4.423,-4.4231,-4.4231,-4.4229,-4.4228,-4.4227,-4.4322,-4.4325,-4.4329,0,0,0,0,0,0,0,0,0,0,0,0,0,-4.3973,-4.3976,-4.4139,-4.4141,-4.4142,-4.4229,-4.423,-4.4231,-4.4231,-4.4229,-4.4228,-4.4227,-4.432,-4.4325,-4.4329,0,0,0,0,0,0,0,0,0,0,0,0,0,-4.4052,-4.3977,-4.4139,-4.4152,-4.4154,-4.4229,-4.423,-4.4232,-4.4231,-4.4229,-4.4228,-4.4226,-4.4319,-4.4324,-4.433,-4.4398,0,0,-4.4346,-4.4348,0,0,0,0,0,0,0,0,-4.4047,-4.4058,-4.4149,-4.4151,-4.4154,-4.4217,-4.4206,-4.4288,-4.4232,-4.4202,-4.4227,-4.4225,-4.4288,-4.4296,-4.4317,-4.4403,-4.4407,-4.4347,-4.435,-4.4352,-4.4354,0,0,0,0,0,0,0,-4.4042,-4.4054,-4.4175,-4.415,-4.4153,-4.4155,-4.4164,-4.4221,-4.4254,-4.4204,-4.4204,-4.4215,-4.4289,-4.4312,-4.4319,-4.4408,-4.4346,-4.4351,-4.4355,-4.4357,-4.4557,-4.4559,0,0,0,0,0,0,-4.4033,-4.405,-4.4172,-4.4178,-4.4095,-4.4159,-4.4169,-4.4198,-4.4253,-4.426,-4.4216,-4.4215,-4.4303,-4.4313,-4.4322,-4.4407,-4.4352,-4.4357,-4.436,-4.4555,-4.4558,-4.456,0,0,0,0,0,0,-4.403,-4.4044,-4.4168,-4.4114,-4.413,-4.4164,-4.4196,-4.4201,-4.4223,-4.4262,-4.4269,-4.4233,-4.4302,-4.4315,-4.438,-4.441,-4.436,-4.4365,-4.4553,-4.4556,-4.4559,-4.4577,0,0,0,0,0,0,-4.4025,-4.4043,-4.4068,-4.4114,-4.4133,-4.4223,-4.4198,-4.4204,-4.4232,-4.4231,-4.428,-4.4286,-4.4302,-4.4372,-4.4385,-4.4417,-4.4369,-4.455,-4.4554,-4.4558,-4.4573,-4.458,-4.4586,0,0,0,0,0,-4.4019,-4.407,-4.4069,-4.4084,-4.4165,-4.4224,-4.4235,-4.4251,-4.4235,-4.4261,-4.4287,-4.4284,-4.4405,-4.4378,-4.4393,-4.4427,-4.4548,-4.4553,-4.4558,-4.4571,-4.4579,-4.4585,0,0,0,0,0,0,-4.4027,-4.4076,-4.4076,-4.4143,-4.418,-4.4224,-4.4258,-4.4259,-4.4302,-4.4299,-4.4318,-4.433,-4.4394,-4.4418,-4.4387,-4.4498,-4.4475,-4.4483,-4.448,-4.4488,-4.4494,-4.4486,-4.4373,0,0,0,0,0,-4.4036,-4.408,-4.4121,-4.4176,-4.4195,-4.4223,-4.425,-4.426,-4.4299,-4.4314,-4.4344,-4.4383,-4.443,-4.4461,-4.4506,-4.4578,-4.4589,-4.4609,-4.4615,-4.462,-4.4626,-4.4667,-4.4676,-4.4575,-4.4575,-4.4575,0,0,-4.4056,-4.4089,-4.4115,-4.4179,-4.4208,-4.4254,-4.4236,-4.4285,-4.4319,-4.4322,-4.4384,-4.4409,-4.4454,-4.4523,-4.4554,-4.4544,-4.4657,-4.4626,-4.4629,-4.4633,-4.4673,-4.4682,-4.4691,-4.4579,-4.4578,-4.4577,0,0,-4.4116,-4.4144,-4.4194,-4.4224,-4.4269,-4.4288,-4.43,-4.4345,-4.4361,-4.4424,-4.4428,-4.447,-4.455,-4.4582,-4.4609,-4.4684,-4.4684,-4.4699,-4.473,-4.4769,-4.4777,-4.4784,-4.4811,-4.4821,-4.4705,-4.4705,-4.4705,0,-4.4135,-4.4202,-4.4219,-4.4268,-4.4297,-4.4302,-4.4353,-4.4382,-4.444,-4.446,-4.4447,-4.4549,-4.458,-4.4657,-4.4675,-4.4697,-4.4712,-4.4692,-4.4775,-4.4782,-4.4789,-4.4815,-4.4825,-4.4707,-4.4706,-4.4706,-4.4706,0,-4.4224,-4.4271,-4.4306,-4.4361,-4.4394,-4.4444,-4.447,-4.4502,-4.451,-4.4531,-4.4597,-4.4634,-4.4687,-4.4707,-4.4715,-4.4786,-4.4778,-4.477,-4.4747,-4.48,-4.4824,-4.4834,-4.4709,-4.4708,-4.4708,-4.4707,0,0,-4.4288,-4.4353,-4.4366,-4.4391,-4.4443,-4.448,-4.4532,-4.4583,-4.461,-4.4651,-4.4695,-4.4764,-4.4758,-4.4789,-4.4801,-4.4836,-4.4894,-4.4824,-4.4825,-4.4835,-4.4975,-4.4979,-4.499,-4.4895,-4.4897,-4.4898,-4.4971,0,-4.4353,-4.4442,-4.446,-4.4538,-4.4583,-4.459,-4.4635,-4.4672,-4.4694,-4.4736,-4.4761,-4.481,-4.4797,-4.4816,-4.4851,-4.4879,-4.4922,-4.4874,-4.4937,-4.4939,-4.4923,-4.5003,-4.5008,-4.5075,-4.4981,-4.4982,-4.4983,0,-4.4439,-4.4481,-4.4563,-4.461,-4.463,-4.4669,-4.4719,-4.4759,-4.4803,-4.4817,-4.4852,-4.4861,-4.4917,-4.4893,-4.497,-4.4938,-4.4965,-4.4983,-4.4986,-4.4991,-4.4963,-4.501,-4.5096,-4.5106,-4.4999,-4.4998,-4.4996,0,-4.4477,-4.4555,-4.4614,-4.4636,-4.4692,-4.472,-4.4745,-4.4787,-4.4817,-4.4862,-4.4882,-4.4933,-4.496,-4.5,-4.5024,-4.5004,-4.51,-4.5078,-4.5114,-4.5113,-4.5132,-4.513,-4.5223,-4.5152,-4.5151,-4.5151,-4.5151,0,-4.4546,-4.4596,-4.4632,-4.4669,-4.4726,-4.4748,-4.4804,-4.4829,-4.4867,-4.4909,-4.492,-4.496,-4.4989,-4.5034,-4.5053,-4.5115,-4.5127,-4.5141,-4.5145,-4.5139,-4.5137,-4.5156,-4.5152,-4.5154,-4.5153,-4.5153,-4.5152,0,-4.4597,-4.4623,-4.4689,-4.4737,-4.475,-4.479,-4.4832,-4.4869,-4.4892,-4.4946,-4.4961,-4.4997,-4.5051,-4.5079,-4.5146,-4.5159,-4.5229,-4.5231,-4.5213,-4.5215,-4.5249,-4.5245,-4.5356,-4.5372,-4.5291,-4.5291,-4.5292,0,-4.4639,-4.4678,-4.473,-4.4759,-4.4784,-4.4831,-4.4862,-4.4886,-4.4919,-4.4972,-4.5003,-4.5057,-4.5101,-4.5188,-4.5221,-4.5273,-4.5276,-4.5312,-4.5284,-4.5277,-4.5276,-4.5273,-4.5277,-4.5316,-4.5316,-4.5317,-4.5318,0,-4.471,-4.4722,-4.4766,-4.4815,-4.4852,-4.4892,-4.4932,-4.4956,-4.4987,-4.5023,-4.5078,-4.5112,-4.5181,-4.5235,-4.529,-4.5318,-4.5324,-4.5326,-4.5337,-4.5331,-4.5319,-4.5326,-4.5225,-4.5323,-4.5323,-4.5322,-4.5322,-4.5322,-4.4758,-4.4793,-4.4836,-4.4885,-4.4918,-4.4955,-4.4992,-4.502,-4.5066,-4.5123,-4.5135,-4.5193,-4.5238,-4.5312,-4.5342,-4.5389,-4.5382,-4.5397,-4.5401,-4.5405,-4.5406,-4.5313,-4.5399,-4.5399,-4.5399,-4.5399,-4.5399,0,-4.4829,-4.4858,-4.4903,-4.4958,-4.4997,-4.4999,-4.5044,-4.5077,-4.5128,-4.5169,-4.5212,-4.5276,-4.5329,-4.5368,-4.5422,-4.5453,-4.5457,-4.5466,-4.5464,-4.547,-4.5409,-4.5394,-4.5462,-4.5462,-4.5462,-4.5462,-4.5462,-4.5462,-4.4871,-4.4931,-4.4948,-4.5024,-4.5053,-4.5109,-4.5134,-4.517,-4.5202,-4.5273,-4.5317,-4.5341,-4.5382,-4.544,-4.5489,-4.55,-4.5519,-4.5528,-4.5539,-4.5481,-4.5474,-4.5468,-4.5453,-4.5533,-4.5533,-4.5595,-4.5596,-4.5596]},{"header":{"parameterUnit":"m.s-1","parameterCategory":1,"la1":30.2991,"la2":30.254,"lo1":-89.0895,"lo2":-89.0444,"dy":0.0017,"dx":0.0017,"nx":28,"ny":28,"refTime":"2026-02-14T09:00:00:Z","depth":0,"parameterNumber":3,"parameterNumberName":"V-component_of_WINDS"},"data":[0,0,0,0,0,0,0,0,0,0,0,0,0,0,0,0,0,0,0,0,0,0,0,0,0,0,0,0,0,0,0,0,0,0,0,0,0,0,0,0,0,0,0,0,0,0,0,0,0,0,0,0,0,0,0,0,0,0,4.5862,4.5861,0,4.5786,4.5785,4.5784,4.5715,4.5714,4.5713,4.5712,4.5632,4.5631,4.563,0,0,0,0,0,0,0,0,0,0,0,0,0,4.5948,4.5947,4.5862,4.5861,4.586,4.5786,4.5785,4.5784,4.5715,4.5714,4.5713,4.5712,4.5633,4.5631,4.563,0,0,0,0,0,0,0,0,0,0,0,0,0,4.5895,4.5946,4.5862,4.5817,4.5812,4.5786,4.5785,4.5784,4.5715,4.5714,4.5713,4.5712,4.5633,4.5631,4.5629,4.5641,0,0,4.5623,4.5622,0,0,0,0,0,0,0,0,4.5898,4.5892,4.5824,4.582,4.5814,4.5759,4.5786,4.5736,4.5716,4.5752,4.5712,4.5711,4.5675,4.567,4.5658,4.5638,4.5634,4.5623,4.5622,4.5621,4.562,0,0,0,0,0,0,0,4.5902,4.5895,4.5832,4.5823,4.5817,4.58,4.5792,4.5776,4.5721,4.5749,4.5743,4.5735,4.5672,4.566,4.5656,4.5633,4.5623,4.5621,4.562,4.5619,4.5624,4.5625,0,0,0,0,0,0,4.5913,4.5898,4.5834,4.5829,4.5854,4.58,4.579,4.5778,4.5721,4.5712,4.5737,4.5733,4.5664,4.5658,4.5653,4.5666,4.5621,4.5619,4.5618,4.5622,4.5624,4.5625,0,0,0,0,0,0,4.5915,4.5908,4.5837,4.5862,4.5852,4.58,4.5787,4.5777,4.5765,4.5712,4.5702,4.5734,4.5663,4.5655,4.5646,4.5662,4.5618,4.5616,4.5621,4.5623,4.5625,4.5691,0,0,0,0,0,0,4.5918,4.5909,4.5912,4.5863,4.5851,4.5831,4.5787,4.5776,4.5762,4.5756,4.5707,4.5698,4.5661,4.5649,4.5644,4.5658,4.5614,4.5619,4.5622,4.5624,4.5687,4.5695,4.5702,0,0,0,0,0,4.5921,4.5932,4.5913,4.5905,4.5855,4.5832,4.5826,4.5784,4.5763,4.5767,4.5734,4.57,4.5661,4.5649,4.5642,4.5656,4.5618,4.5621,4.5624,4.5684,4.5693,4.5701,0,0,0,0,0,0,4.5982,4.5925,4.5902,4.5898,4.5871,4.5821,4.5824,4.5795,4.5772,4.5767,4.5715,4.5705,4.5702,4.5678,4.5665,4.5667,4.5635,4.5637,4.5683,4.5692,4.5699,4.5705,4.5613,0,0,0,0,0,4.5996,4.5983,4.5933,4.5935,4.5922,4.5876,4.5865,4.5835,4.5805,4.5792,4.5758,4.573,4.5712,4.57,4.568,4.5684,4.5674,4.569,4.5698,4.5704,4.5706,4.571,4.5718,4.5635,4.5635,4.5635,0,0,4.6023,4.599,4.5984,4.5946,4.5922,4.5911,4.5866,4.5855,4.5846,4.579,4.578,4.5755,4.572,4.5718,4.5715,4.5698,4.5727,4.5708,4.5713,4.5712,4.5714,4.5722,4.5729,4.5637,4.5637,4.5637,0,0,4.6066,4.6039,4.6039,4.6017,4.5981,4.5951,4.5951,4.5906,4.5888,4.5878,4.5837,4.5826,4.5794,4.5772,4.5757,4.5798,4.5767,4.5793,4.5831,4.5835,4.5842,4.5847,4.5864,4.5871,4.5795,4.5796,4.5796,0,4.6104,4.6085,4.6042,4.6035,4.6021,4.5972,4.5973,4.5953,4.5912,4.5904,4.5885,4.5848,4.582,4.5815,4.5825,4.5814,4.5814,4.5798,4.5844,4.585,4.5854,4.587,4.5876,4.5799,4.5799,4.5798,4.5798,0,4.6135,4.6123,4.6127,4.6092,4.6078,4.6074,4.6032,4.6024,4.5997,4.5969,4.5961,4.5928,4.5902,4.5898,4.587,4.589,4.5881,4.5854,4.582,4.5866,4.588,4.5886,4.5804,4.5803,4.5802,4.5801,0,0,4.6211,4.6156,4.6159,4.6144,4.6103,4.6093,4.6089,4.6066,4.6061,4.6035,4.6032,4.6009,4.5986,4.5969,4.5939,4.5943,4.5981,4.5916,4.5914,4.5931,4.6003,4.6024,4.6032,4.5961,4.5962,4.5962,4.6007,0,4.6249,4.6239,4.6203,4.6204,4.6194,4.6151,4.6147,4.6123,4.6098,4.6087,4.6059,4.6045,4.6014,4.6004,4.6006,4.5976,4.5995,4.5972,4.5958,4.5958,4.5969,4.6038,4.6059,4.6103,4.6012,4.6013,4.6013,0,4.629,4.6272,4.6273,4.6237,4.6231,4.6229,4.6207,4.6196,4.6168,4.615,4.6134,4.6102,4.6097,4.6067,4.6061,4.6046,4.6039,4.6024,4.6025,4.6022,4.5988,4.6039,4.6115,4.6123,4.6021,4.6021,4.602,0,4.6349,4.6324,4.6322,4.631,4.6267,4.6268,4.625,4.6221,4.6211,4.6192,4.6185,4.6165,4.6154,4.6141,4.6105,4.6086,4.6104,4.607,4.609,4.6091,4.6095,4.6095,4.6173,4.6089,4.6089,4.6089,4.6089,0,4.6395,4.6398,4.6348,4.6347,4.635,4.631,4.6314,4.6292,4.6268,4.6263,4.6223,4.6219,4.6172,4.6163,4.6136,4.6136,4.6131,4.6118,4.611,4.6121,4.6124,4.6116,4.6112,4.6091,4.609,4.609,4.609,0,4.6461,4.6427,4.6423,4.6384,4.6375,4.6379,4.6346,4.6345,4.6319,4.6314,4.631,4.627,4.6258,4.6222,4.62,4.6182,4.6191,4.6177,4.6201,4.6196,4.6219,4.6218,4.6295,4.6304,4.6214,4.6215,4.6216,0,4.6492,4.6494,4.6457,4.6452,4.6437,4.6428,4.6418,4.638,4.6371,4.6343,4.6346,4.6331,4.6317,4.6301,4.627,4.6255,4.624,4.6268,4.6237,4.625,4.6243,4.6243,4.6245,4.6275,4.6276,4.6277,4.6278,0,4.6553,4.6538,4.6526,4.651,4.65,4.6485,4.6467,4.6465,4.6422,4.6415,4.6404,4.6394,4.6374,4.6361,4.6341,4.6323,4.6295,4.6288,4.6292,4.6304,4.6319,4.6313,4.622,4.6286,4.6285,4.6285,4.6284,4.6284,4.6604,4.6605,4.658,4.657,4.6553,4.6539,4.6537,4.6513,4.6503,4.6484,4.6463,4.6455,4.6431,4.6402,4.6387,4.6381,4.6365,4.637,4.6372,4.6374,4.6381,4.632,4.6377,4.6377,4.6377,4.6376,4.6376,0,4.6664,4.6648,4.6638,4.6617,4.6609,4.6584,4.6565,4.656,4.6554,4.6535,4.6524,4.6513,4.6501,4.6472,4.6457,4.6459,4.6445,4.6456,4.6456,4.6453,4.6395,4.6393,4.6468,4.6468,4.6468,4.6468,4.6468,4.6468,4.6695,4.6696,4.6679,4.6673,4.6656,4.6649,4.6641,4.6628,4.6613,4.6603,4.6594,4.6576,4.6553,4.6538,4.6527,4.6519,4.6516,4.6532,4.652,4.6466,4.6457,4.6448,4.6447,4.6532,4.6532,4.6579,4.6579,4.658]}]]